[[{"header":{"parameterUnit":"m.s-1","parameterCategory":1,"la1":30.2991,"la2":30.254,"lo1":-89.0895,"lo2":-89.0444,"dy":0.0017,"dx":0.0017,"nx":28,"ny":28,"refTime":"2024-10-07T21:00:00:Z","depth":0,"parameterNumber":2,"parameterNumberName":"U-component_of_WINDS"},"data":[0,0,0,0,0,0,0,0,0,0,0,0,0,0,0,0,0,0,0,0,0,0,0,0,0,0,0,0,0,0,0,0,0,0,0,0,0,0,0,0,0,0,0,0,0,0,0,0,0,0,0,0,0,0,0,0,0,0,-0.3934,-0.3934,0,-0.3964,-0.3964,-0.3965,-0.3953,-0.3952,-0.3951,-0.3951,-0.3982,-0.3984,-0.3985,0,0,0,0,0,0,0,0,0,0,0,0,0,-0.3865,-0.3866,-0.3934,-0.3934,-0.3934,-0.3964,-0.3964,-0.3965,-0.3953,-0.3952,-0.3951,-0.395,-0.3982,-0.3984,-0.3985,0,0,0,0,0,0,0,0,0,0,0,0,0,-0.3895,-0.3867,-0.3933,-0.3932,-0.3932,-0.3964,-0.3964,-0.3965,-0.3953,-0.3952,-0.3951,-0.395,-0.3981,-0.3983,-0.3986,-0.4021,0,0,-0.3993,-0.3993,0,0,0,0,0,0,0,0,-0.3893,-0.3898,-0.3932,-0.3932,-0.3932,-0.3953,-0.3952,-0.3984,-0.3953,-0.3945,-0.3951,-0.3949,-0.3974,-0.3976,-0.3984,-0.4022,-0.4024,-0.3993,-0.3994,-0.3995,-0.3996,0,0,0,0,0,0,0,-0.3891,-0.3896,-0.3946,-0.3932,-0.3933,-0.393,-0.3933,-0.3958,-0.3965,-0.3946,-0.3945,-0.3949,-0.3974,-0.3982,-0.3985,-0.4024,-0.3993,-0.3995,-0.3996,-0.3997,-0.4092,-0.4093,0,0,0,0,0,0,-0.3889,-0.3895,-0.3945,-0.3946,-0.391,-0.3932,-0.3935,-0.3948,-0.3965,-0.3966,-0.3949,-0.3948,-0.3979,-0.3982,-0.3986,-0.4029,-0.3995,-0.3997,-0.3998,-0.4091,-0.4092,-0.4093,0,0,0,0,0,0,-0.3888,-0.3894,-0.3943,-0.392,-0.3926,-0.3934,-0.3948,-0.3949,-0.3958,-0.3967,-0.3969,-0.3957,-0.3978,-0.3983,-0.4012,-0.4029,-0.3998,-0.4,-0.4089,-0.4091,-0.4093,-0.4114,0,0,0,0,0,0,-0.3886,-0.3893,-0.3907,-0.3921,-0.3928,-0.3969,-0.3949,-0.395,-0.3961,-0.396,-0.3975,-0.3977,-0.3978,-0.4009,-0.4014,-0.4032,-0.4002,-0.4088,-0.409,-0.4092,-0.4111,-0.4116,-0.412,0,0,0,0,0,-0.3883,-0.3912,-0.3908,-0.3914,-0.3945,-0.397,-0.3974,-0.3975,-0.3963,-0.3977,-0.3983,-0.3976,-0.4026,-0.4012,-0.4018,-0.4037,-0.4087,-0.409,-0.4092,-0.411,-0.4115,-0.412,0,0,0,0,0,0,-0.39,-0.3914,-0.3909,-0.3943,-0.3955,-0.3968,-0.3985,-0.398,-0.3997,-0.3995,-0.3995,-0.3998,-0.4028,-0.4035,-0.4019,-0.4071,-0.4055,-0.4059,-0.4066,-0.4071,-0.4075,-0.4073,-0.4004,0,0,0,0,0,-0.3908,-0.3927,-0.3938,-0.3966,-0.3973,-0.3978,-0.3989,-0.3988,-0.4001,-0.4007,-0.4015,-0.4028,-0.4047,-0.4059,-0.4077,-0.4112,-0.4115,-0.4127,-0.4132,-0.4135,-0.4139,-0.4158,-0.4163,-0.4102,-0.4102,-0.4102,0,0,-0.3924,-0.3934,-0.3946,-0.397,-0.398,-0.4,-0.3983,-0.4005,-0.4019,-0.401,-0.4038,-0.4045,-0.4059,-0.4091,-0.4106,-0.4098,-0.4156,-0.4138,-0.4141,-0.4143,-0.4161,-0.4167,-0.4172,-0.4104,-0.4104,-0.4103,0,0,-0.3964,-0.3973,-0.3998,-0.4007,-0.4022,-0.4025,-0.4031,-0.4044,-0.4048,-0.4076,-0.4069,-0.4086,-0.4119,-0.4129,-0.4139,-0.4181,-0.4175,-0.4187,-0.4209,-0.4227,-0.4232,-0.4236,-0.4251,-0.4257,-0.419,-0.419,-0.419,0,-0.3982,-0.4012,-0.4011,-0.4034,-0.4044,-0.4036,-0.4061,-0.407,-0.409,-0.4098,-0.4088,-0.4128,-0.4137,-0.4172,-0.4182,-0.419,-0.4196,-0.4186,-0.4231,-0.4235,-0.4239,-0.4254,-0.426,-0.4191,-0.4191,-0.4191,-0.4191,0,-0.4034,-0.4055,-0.4073,-0.4092,-0.4104,-0.4128,-0.4131,-0.4143,-0.4141,-0.4145,-0.4173,-0.4184,-0.4203,-0.4211,-0.4209,-0.4245,-0.424,-0.4231,-0.4214,-0.4246,-0.426,-0.4266,-0.4193,-0.4193,-0.4192,-0.4192,0,0,-0.4087,-0.4104,-0.4111,-0.4119,-0.4134,-0.415,-0.4172,-0.4191,-0.4202,-0.4216,-0.4235,-0.4262,-0.4253,-0.4264,-0.4263,-0.4279,-0.4312,-0.4268,-0.4268,-0.4276,-0.4352,-0.436,-0.4366,-0.4308,-0.4309,-0.431,-0.4351,0,-0.4128,-0.4168,-0.4168,-0.4205,-0.4224,-0.4216,-0.4236,-0.4247,-0.4251,-0.4267,-0.4271,-0.4291,-0.4277,-0.4284,-0.4299,-0.4305,-0.4327,-0.4301,-0.4326,-0.4327,-0.4324,-0.4373,-0.4382,-0.442,-0.4356,-0.4357,-0.4358,0,-0.4182,-0.4197,-0.4236,-0.4247,-0.4255,-0.4273,-0.429,-0.4306,-0.4318,-0.432,-0.4331,-0.4328,-0.4351,-0.4332,-0.4364,-0.4347,-0.4356,-0.436,-0.4362,-0.4365,-0.4345,-0.4379,-0.4433,-0.4439,-0.4366,-0.4366,-0.4365,0,-0.4217,-0.4247,-0.4274,-0.4281,-0.4295,-0.4308,-0.4314,-0.4325,-0.4336,-0.4351,-0.4358,-0.4375,-0.4384,-0.4398,-0.4398,-0.4385,-0.4431,-0.4413,-0.4433,-0.4433,-0.4444,-0.4444,-0.4501,-0.4449,-0.4449,-0.4449,-0.4448,0,-0.4264,-0.4289,-0.429,-0.4307,-0.4334,-0.4332,-0.4359,-0.4364,-0.4374,-0.4391,-0.4385,-0.4401,-0.4401,-0.4418,-0.4419,-0.4445,-0.4449,-0.4451,-0.4451,-0.4453,-0.4452,-0.446,-0.4457,-0.445,-0.445,-0.4449,-0.4449,0,-0.4309,-0.4311,-0.434,-0.435,-0.4353,-0.4373,-0.4381,-0.4397,-0.44,-0.4422,-0.4427,-0.4432,-0.4451,-0.4453,-0.4475,-0.4476,-0.4508,-0.4505,-0.4504,-0.4504,-0.4524,-0.4522,-0.459,-0.4598,-0.4539,-0.454,-0.454,0,-0.4339,-0.4358,-0.437,-0.4381,-0.4388,-0.4406,-0.4417,-0.4416,-0.4427,-0.4442,-0.4456,-0.4475,-0.449,-0.4521,-0.4526,-0.4543,-0.4541,-0.4563,-0.4544,-0.4544,-0.4542,-0.4541,-0.4543,-0.4567,-0.4568,-0.4569,-0.4569,0,-0.4393,-0.4393,-0.4409,-0.4425,-0.4438,-0.4451,-0.4463,-0.4473,-0.4473,-0.4486,-0.4506,-0.4517,-0.454,-0.4559,-0.4575,-0.4581,-0.4576,-0.4575,-0.4581,-0.4583,-0.4582,-0.4583,-0.4515,-0.4574,-0.4573,-0.4573,-0.4573,-0.4572,-0.4432,-0.4448,-0.4459,-0.4477,-0.4485,-0.4496,-0.4512,-0.4516,-0.4532,-0.455,-0.4548,-0.457,-0.4581,-0.4602,-0.461,-0.4627,-0.4619,-0.4627,-0.463,-0.4632,-0.4634,-0.4578,-0.4629,-0.4629,-0.4629,-0.4629,-0.4629,0,-0.4486,-0.4492,-0.4509,-0.4525,-0.4539,-0.4531,-0.4544,-0.4556,-0.4575,-0.4586,-0.46,-0.4623,-0.464,-0.4646,-0.4663,-0.4676,-0.4673,-0.468,-0.468,-0.4682,-0.464,-0.4633,-0.4682,-0.4682,-0.4682,-0.4682,-0.4682,-0.4682,-0.4516,-0.4542,-0.4543,-0.4574,-0.458,-0.4601,-0.4609,-0.4619,-0.4627,-0.4652,-0.4667,-0.467,-0.4679,-0.4696,-0.4712,-0.4713,-0.472,-0.4728,-0.4729,-0.469,-0.4685,-0.468,-0.4674,-0.473,-0.473,-0.4769,-0.477,-0.477]},{"header":{"parameterUnit":"m.s-1","parameterCategory":1,"la1":30.2991,"la2":30.254,"lo1":-89.0895,"lo2":-89.0444,"dy":0.0017,"dx":0.0017,"nx":28,"ny":28,"refTime":"2024-10-07T21:00:00:Z","depth":0,"parameterNumber":3,"parameterNumberName":"V-component_of_WINDS"},"data":[0,0,0,0,0,0,0,0,0,0,0,0,0,0,0,0,0,0,0,0,0,0,0,0,0,0,0,0,0,0,0,0,0,0,0,0,0,0,0,0,0,0,0,0,0,0,0,0,0,0,0,0,0,0,0,0,0,0,-4.4161,-4.4162,0,-4.4181,-4.4181,-4.4181,-4.4118,-4.4116,-4.4115,-4.4113,-4.4129,-4.4131,-4.4134,0,0,0,0,0,0,0,0,0,0,0,0,0,-4.4066,-4.4068,-4.4161,-4.4162,-4.4162,-4.4181,-4.4181,-4.4181,-4.4119,-4.4116,-4.4114,-4.4112,-4.4128,-4.4131,-4.4134,0,0,0,0,0,0,0,0,0,0,0,0,0,-4.4099,-4.4069,-4.4161,-4.4133,-4.4131,-4.4181,-4.4181,-4.4181,-4.4119,-4.4116,-4.4113,-4.4111,-4.4128,-4.4131,-4.4134,-4.4212,0,0,-4.4144,-4.4146,0,0,0,0,0,0,0,0,-4.4097,-4.4102,-4.4137,-4.4135,-4.4132,-4.4144,-4.4153,-4.4191,-4.412,-4.4123,-4.4113,-4.4109,-4.4136,-4.4139,-4.4149,-4.4212,-4.4213,-4.4145,-4.4147,-4.4148,-4.4149,0,0,0,0,0,0,0,-4.4095,-4.4101,-4.4169,-4.4137,-4.4135,-4.4118,-4.4119,-4.416,-4.4145,-4.4123,-4.4118,-4.4122,-4.4135,-4.4146,-4.4148,-4.4213,-4.4144,-4.4147,-4.4149,-4.4151,-4.4342,-4.4345,0,0,0,0,0,0,-4.4096,-4.4099,-4.4168,-4.4169,-4.4107,-4.4122,-4.4124,-4.4143,-4.4145,-4.4142,-4.4124,-4.4119,-4.4141,-4.4145,-4.4149,-4.424,-4.4148,-4.4151,-4.4153,-4.4339,-4.4343,-4.4346,0,0,0,0,0,0,-4.4095,-4.4103,-4.4167,-4.4133,-4.414,-4.4127,-4.4149,-4.4145,-4.4156,-4.4146,-4.4143,-4.4138,-4.4139,-4.4144,-4.4197,-4.424,-4.4153,-4.4156,-4.4335,-4.434,-4.4344,-4.4423,0,0,0,0,0,0,-4.4092,-4.4103,-4.4133,-4.4134,-4.4142,-4.4216,-4.4152,-4.4148,-4.4162,-4.4156,-4.4158,-4.4156,-4.4137,-4.4192,-4.42,-4.4243,-4.4158,-4.4331,-4.4337,-4.4343,-4.4416,-4.4429,-4.4441,0,0,0,0,0,-4.4089,-4.4153,-4.4135,-4.4144,-4.418,-4.4219,-4.4223,-4.4201,-4.4166,-4.4196,-4.4189,-4.4156,-4.4234,-4.4198,-4.4206,-4.4251,-4.4329,-4.4336,-4.4342,-4.4411,-4.4427,-4.444,0,0,0,0,0,0,-4.4156,-4.4153,-4.4132,-4.4199,-4.421,-4.4208,-4.4245,-4.4219,-4.4239,-4.4231,-4.4202,-4.4204,-4.4261,-4.4261,-4.4222,-4.4326,-4.4275,-4.4284,-4.4324,-4.4339,-4.4351,-4.435,-4.4161,0,0,0,0,0,-4.4179,-4.4212,-4.4207,-4.4267,-4.4273,-4.4259,-4.4275,-4.4257,-4.4266,-4.427,-4.4267,-4.4277,-4.4303,-4.4321,-4.4345,-4.4416,-4.4415,-4.445,-4.4463,-4.4473,-4.4481,-4.4518,-4.4534,-4.4369,-4.4369,-4.4369,0,0,-4.4225,-4.4228,-4.425,-4.428,-4.4286,-4.432,-4.4262,-4.4301,-4.4326,-4.4275,-4.4325,-4.4324,-4.4332,-4.4395,-4.4422,-4.4396,-4.4526,-4.4482,-4.449,-4.4492,-4.4527,-4.4543,-4.4557,-4.4374,-4.4373,-4.4372,0,0,-4.4328,-4.4334,-4.4384,-4.4392,-4.4403,-4.4393,-4.4405,-4.4407,-4.4405,-4.4455,-4.4418,-4.4447,-4.4493,-4.4501,-4.4511,-4.4618,-4.4588,-4.4626,-4.469,-4.4727,-4.474,-4.4751,-4.4789,-4.4804,-4.4634,-4.4634,-4.4634,0,-4.4384,-4.4436,-4.4413,-4.4454,-4.4468,-4.4426,-4.4477,-4.4485,-4.4502,-4.4512,-4.4484,-4.4541,-4.4544,-4.4608,-4.4634,-4.4644,-4.4656,-4.4625,-4.474,-4.4751,-4.4762,-4.4798,-4.4812,-4.4639,-4.4638,-4.4638,-4.4637,0,-4.4504,-4.4541,-4.458,-4.46,-4.4618,-4.4664,-4.4647,-4.4668,-4.4649,-4.4642,-4.4693,-4.4695,-4.4719,-4.4733,-4.4714,-4.4794,-4.4778,-4.4745,-4.4693,-4.4782,-4.4816,-4.4829,-4.4645,-4.4644,-4.4642,-4.4641,0,0,-4.4649,-4.4657,-4.4671,-4.468,-4.4689,-4.4716,-4.476,-4.4784,-4.4803,-4.4817,-4.4852,-4.4893,-4.4863,-4.4874,-4.4856,-4.4889,-4.4974,-4.4852,-4.4852,-4.4874,-4.5062,-4.5086,-4.5103,-4.4954,-4.4957,-4.4959,-4.5061,0,-4.475,-4.4827,-4.4808,-4.4883,-4.4916,-4.4877,-4.4915,-4.4924,-4.4919,-4.4945,-4.4938,-4.4968,-4.4926,-4.4933,-4.4963,-4.4957,-4.5011,-4.4949,-4.4986,-4.4988,-4.4985,-4.512,-4.5146,-4.5243,-4.5074,-4.5076,-4.5078,0,-4.4878,-4.4899,-4.4978,-4.4983,-4.4996,-4.503,-4.5052,-4.5077,-4.5087,-4.5081,-4.5094,-4.507,-4.5112,-4.5061,-4.5118,-4.5077,-4.509,-4.509,-4.5093,-4.5095,-4.5038,-4.5126,-4.5273,-4.5288,-4.5098,-4.5097,-4.5095,0,-4.4976,-4.5023,-4.5076,-4.5085,-4.5092,-4.5117,-4.5121,-4.5128,-4.5144,-4.5162,-4.5172,-4.5195,-4.5207,-4.5225,-4.5207,-4.5171,-4.5267,-4.5214,-4.5262,-4.5263,-4.5284,-4.5283,-4.5435,-4.5293,-4.5293,-4.5293,-4.5293,0,-4.5091,-4.514,-4.5121,-4.5153,-4.5208,-4.5186,-4.524,-4.5239,-4.5246,-4.5277,-4.5244,-4.5274,-4.5248,-4.5276,-4.5262,-4.5311,-4.5317,-4.5312,-4.5308,-4.5315,-4.5316,-4.5324,-4.5317,-4.5297,-4.5296,-4.5295,-4.5294,0,-4.5208,-4.5197,-4.5253,-4.5256,-4.5257,-4.5298,-4.5299,-4.5329,-4.5322,-4.5362,-4.537,-4.5358,-4.5388,-4.5372,-4.5403,-4.5394,-4.5458,-4.5445,-4.5456,-4.5452,-4.5501,-4.5497,-4.5664,-4.5685,-4.553,-4.5532,-4.5533,0,-4.5282,-4.532,-4.5327,-4.5347,-4.5353,-4.5385,-4.5402,-4.5381,-4.54,-4.5414,-4.5442,-4.5471,-4.5492,-4.5542,-4.5536,-4.5559,-4.5546,-4.5603,-4.5549,-4.5556,-4.5547,-4.5545,-4.5548,-4.5614,-4.5616,-4.5617,-4.5618,0,-4.5415,-4.5408,-4.5434,-4.5459,-4.5481,-4.5499,-4.5514,-4.5532,-4.5511,-4.5534,-4.5566,-4.5583,-4.5615,-4.5643,-4.5664,-4.5666,-4.5639,-4.5635,-4.5648,-4.5655,-4.566,-4.5658,-4.5485,-4.5631,-4.563,-4.5629,-4.5628,-4.5628,-4.5513,-4.5545,-4.5555,-4.5586,-4.5596,-4.5611,-4.564,-4.5637,-4.5663,-4.5689,-4.5675,-4.5712,-4.5721,-4.5746,-4.5752,-4.578,-4.5758,-4.5776,-4.578,-4.5785,-4.5792,-4.5656,-4.5784,-4.5784,-4.5783,-4.5783,-4.5783,0,-4.5643,-4.5649,-4.5677,-4.5701,-4.5725,-4.5699,-4.5714,-4.5736,-4.5769,-4.5781,-4.5803,-4.5839,-4.5867,-4.5863,-4.5888,-4.5911,-4.5899,-4.5918,-4.5916,-4.5917,-4.5811,-4.5797,-4.5927,-4.5927,-4.5927,-4.5927,-4.5927,-4.5927,-4.5714,-4.5767,-4.5762,-4.5819,-4.5823,-4.5861,-4.5872,-4.5886,-4.5894,-4.5937,-4.5961,-4.5958,-4.5963,-4.5989,-4.6012,-4.601,-4.6021,-4.6045,-4.6038,-4.5939,-4.5924,-4.5911,-4.5898,-4.6047,-4.6047,-4.6142,-4.6143,-4.6144]}]]